QPF
0.00 0.00 0.00 0.00 0.00 0.00 0.00 0.00 0.00 0.00 0.00 0.00 0.00 0.00 0.00 0.00 0.00 0.00 0.00 0.00 0.00 0.00 0.00 0.00 0.00 0.00 0.00 0.00 0.00 0.00 0.01 0.02 0.01 0.01 0.01 0.01 0.01 0.01 0.01 0.00 0.00 0.00 0.00 0.00
0.00 0.00 0.00 0.00 0.00 0.00 0.00 0.00 0.00 0.00 0.00 0.00 0.00 0.00 0.00 0.00 0.00 0.00 0.00 0.00 0.00 0.00 0.00 0.00 0.00 0.00 0.00 0.00 0.00 0.00 0.00 0.01 0.01 0.01 0.02 0.02 0.01 0.01 0.01 0.01 0.02 0.02 0.02 0.00
0.00 0.00 0.00 0.00 0.00 0.00 0.00 0.00 0.00 0.00 0.00 0.00 0.00 0.00 0.00 0.00 0.00 0.00 0.00 0.00 0.00 0.00 0.00 0.00 0.00 0.00 0.00 0.00 0.00 0.00 0.00 0.00 0.00 0.01 0.01 0.01 0.01 0.03 0.01 0.00 0.01 0.01 0.02 0.03
0.00 0.00 0.00 0.00 0.00 0.00 0.00 0.00 0.00 0.00 0.00 0.00 0.00 0.00 0.00 0.00 0.00 0.00 0.00 0.00 0.00 0.00 0.00 0.00 0.00 0.00 0.00 0.00 0.00 0.00 0.00 0.00 0.00 0.00 0.01 0.01 0.00 0.00 0.00 0.00 0.01 0.01 0.01 0.02
0.00 0.00 0.00 0.00 0.00 0.00 0.00 0.00 0.00 0.00 0.00 0.00 0.00 0.00 0.00 0.00 0.00 0.00 0.00 0.00 0.00 0.00 0.00 0.00 0.00 0.00 0.00 0.00 0.00 0.00 0.00 0.00 0.00 0.00 0.00 0.01 0.01 0.01 0.00 0.00 0.00 0.00 0.00 0.00
0.00 0.00 0.00 0.00 0.00 0.00 0.00 0.00 0.00 0.00 0.00 0.00 0.00 0.00 0.00 0.00 0.00 0.00 0.00 0.00 0.00 0.00 0.00 0.00 0.00 0.00 0.00 0.00 0.00 0.00 0.00 0.00 0.00 0.00 0.00 0.00 0.00 0.00 0.00 0.00 0.00 0.00 0.00 0.00
0.00 0.00 0.00 0.00 0.00 0.00 0.00 0.00 0.00 0.00 0.00 0.00 0.00 0.00 0.00 0.00 0.00 0.00 0.00 0.00 0.00 0.00 0.00 0.00 0.00 0.00 0.00 0.00 0.00 0.00 0.00 0.00 0.00 0.00 0.00 0.00 0.00 0.00 0.00 0.00 0.00 0.00 0.00 0.00
0.00 0.00 0.00 0.00 0.00 0.00 0.00 0.00 0.00 0.00 0.00 0.00 0.00 0.00 0.00 0.00 0.00 0.00 0.00 0.00 0.00 0.00 0.00 0.00 0.00 0.00 0.00 0.00 0.00 0.00 0.00 0.00 0.00 0.00 0.00 0.00 0.00 0.00 0.00 0.00 0.00 0.00 0.00 0.00
0.00 0.00 0.00 0.00 0.00 0.00 0.00 0.00 0.00 0.00 0.00 0.00 0.00 0.00 0.00 0.00 0.00 0.00 0.00 0.00 0.00 0.00 0.00 0.00 0.00 0.00 0.00 0.00 0.00 0.00 0.00 0.00 0.00 0.00 0.00 0.00 0.00 0.00 0.00 0.00 0.00 0.00 0.00 0.00
0.00 0.00 0.00 0.00 0.00 0.00 0.00 0.00 0.00 0.00 0.00 0.00 0.00 0.00 0.00 0.00 0.00 0.00 0.00 0.00 0.00 0.00 0.00 0.00 0.00 0.00 0.00 0.00 0.00 0.00 0.00 0.00 0.00 0.00 0.00 0.00 0.00 0.00 0.00 0.00 0.00 0.00 0.00 0.00
0.00 0.00 0.00 0.00 0.00 0.00 0.00 0.00 0.00 0.00 0.00 0.00 0.00 0.00 0.00 0.00 0.00 0.00 0.00 0.00 0.00 0.00 0.00 0.00 0.00 0.00 0.00 0.00 0.00 0.00 0.00 0.00 0.00 0.00 0.00 0.00 0.00 0.00 0.00 0.00 0.00 0.00 0.00 0.00
0.00 0.00 0.00 0.00 0.00 0.00 0.00 0.00 0.00 0.00 0.00 0.00 0.00 0.00 0.00 0.00 0.00 0.00 0.00 0.00 0.00 0.00 0.00 0.00 0.00 0.00 0.00 0.00 0.00 0.00 0.00 0.00 0.00 0.00 0.00 0.00 0.00 0.00 0.00 0.00 0.00 0.00 0.00 0.00
0.00 0.00 0.00 0.00 0.00 0.00 0.00 0.00 0.00 0.00 0.00 0.00 0.00 0.00 0.00 0.00 0.00 0.00 0.00 0.00 0.00 0.00 0.00 0.00 0.00 0.00 0.00 0.00 0.00 0.00 0.00 0.00 0.00 0.00 0.00 0.00 0.00 0.00 0.00 0.00 0.00 0.00 0.00 0.00
0.00 0.00 0.00 0.00 0.00 0.00 0.00 0.00 0.00 0.00 0.00 0.00 0.00 0.00 0.00 0.00 0.00 0.00 0.00 0.00 0.00 0.00 0.00 0.00 0.00 0.00 0.00 0.00 0.00 0.00 0.00 0.00 0.00 0.00 0.00 0.00 0.00 0.00 0.00 0.00 0.00 0.00 0.00 0.00
0.00 0.00 0.00 0.00 0.00 0.00 0.00 0.00 0.00 0.00 0.00 0.00 0.00 0.00 0.00 0.00 0.00 0.00 0.00 0.00 0.00 0.00 0.00 0.00 0.00 0.00 0.00 0.00 0.00 0.00 0.00 0.00 0.00 0.00 0.00 0.00 0.00 0.00 0.00 0.00 0.00 0.00 0.00 0.00
0.00 0.00 0.00 0.00 0.00 0.00 0.00 0.00 0.00 0.00 0.00 0.00 0.00 0.00 0.00 0.00 0.00 0.00 0.00 0.00 0.00 0.00 0.00 0.00 0.00 0.00 0.00 0.00 0.00 0.00 0.00 0.00 0.00 0.00 0.00 0.00 0.00 0.00 0.00 0.00 0.00 0.00 0.00 0.00
0.00 0.00 0.00 0.00 0.00 0.00 0.00 0.00 0.00 0.00 0.00 0.00 0.00 0.00 0.00 0.00 0.00 0.00 0.00 0.00 0.00 0.00 0.00 0.00 0.00 0.00 0.00 0.00 0.00 0.00 0.00 0.00 0.00 0.00 0.00 0.00 0.00 0.00 0.00 0.00 0.00 0.00 0.00 0.00
0.00 0.00 0.00 0.00 0.00 0.00 0.00 0.00 0.00 0.00 0.00 0.00 0.00 0.00 0.00 0.00 0.00 0.00 0.00 0.00 0.00 0.00 0.00 0.00 0.00 0.00 0.00 0.00 0.00 0.00 0.00 0.00 0.00 0.00 0.00 0.00 0.00 0.00 0.00 0.00 0.00 0.00 0.00 0.00
0.00 0.00 0.00 0.00 0.00 0.00 0.00 0.00 0.00 0.00 0.00 0.00 0.00 0.00 0.00 0.00 0.00 0.00 0.00 0.00 0.00 0.00 0.00 0.00 0.00 0.00 0.00 0.00 0.00 0.00 0.00 0.00 0.00 0.00 0.00 0.00 0.00 0.00 0.00 0.00 0.00 0.00 0.00 0.00
0.00 0.00 0.00 0.00 0.00 0.00 0.00 0.00 0.00 0.00 0.00 0.00 0.00 0.00 0.00 0.00 0.00 0.00 0.00 0.00 0.00 0.00 0.00 0.00 0.00 0.00 0.00 0.00 0.00 0.00 0.00 0.00 0.00 0.00 0.00 0.00 0.00 0.00 0.00 0.00 0.00 0.00 0.00 0.00
0.00 0.00 0.00 0.00 0.00 0.00 0.00 0.00 0.00 0.00 0.00 0.00 0.00 0.00 0.00 0.00 0.00 0.00 0.00 0.00 0.00 0.00 0.00 0.00 0.00 0.00 0.00 0.00 0.00 0.00 0.00 0.00 0.00 0.00 0.00 0.00 0.00 0.00 0.00 0.00 0.00 0.00 0.00 0.00
0.00 0.00 0.00 0.00 0.00 0.00 0.00 0.00 0.00 0.00 0.00 0.00 0.00 0.00 0.00 0.00 0.00 0.00 0.00 0.00 0.00 0.00 0.00 0.00 0.00 0.00 0.00 0.00 0.00 0.00 0.00 0.00 0.00 0.00 0.00 0.00 0.00 0.00 0.00 0.00 0.00 0.00 0.00 0.00
0.00 0.00 0.00 0.00 0.00 0.00 0.00 0.00 0.00 0.00 0.00 0.00 0.00 0.00 0.00 0.00 0.00 0.00 0.00 0.00 0.00 0.00 0.00 0.00 0.00 0.01 0.00 0.00 0.00 0.00 0.00 0.00 0.00 0.00 0.00 0.00 0.00 0.00 0.00 0.00 0.00 0.00 0.00 0.00
0.00 0.00 0.00 0.00 0.00 0.00 0.00 0.00 0.00 0.00 0.00 0.00 0.00 0.00 0.00 0.00 0.00 0.00 0.00 0.00 0.00 0.00 0.00 0.00 0.00 0.01 0.00 0.00 0.00 0.00 0.00 0.00 0.00 0.00 0.00 0.00 0.00 0.00 0.00 0.00 0.00 0.00 0.00 0.00
0.00 0.00 0.00 0.00 0.00 0.00 0.00 0.00 0.00 0.00 0.00 0.00 0.00 0.00 0.00 0.00 0.00 0.00 0.00 0.00 0.00 0.00 0.00 0.00 0.00 0.00 0.00 0.00 0.00 0.00 0.00 0.00 0.00 0.00 0.00 0.00 0.00 0.00 0.00 0.00 0.00 0.00 0.00 0.00
0.00 0.00 0.00 0.00 0.00 0.00 0.00 0.00 0.00 0.00 0.00 0.00 0.00 0.00 0.00 0.00 0.00 0.00 0.00 0.00 0.00 0.00 0.00 0.00 0.00 0.00 0.00 0.00 0.00 0.00 0.00 0.00 0.00 0.00 0.00 0.00 0.00 0.00 0.00 0.00 0.00 0.00 0.00 0.00
0.00 0.00 0.00 0.00 0.00 0.00 0.00 0.00 0.00 0.00 0.00 0.00 0.00 0.00 0.00 0.00 0.00 0.00 0.00 0.00 0.00 0.00 0.00 0.00 0.00 0.00 0.00 0.00 0.00 0.00 0.00 0.00 0.00 0.00 0.00 0.00 0.00 0.00 0.00 0.00 0.00 0.00 0.00 0.00
MSLP
1019.59 1019.32 1019.53 1020.18 1020.97 1020.93 1020.56 1020.57 1020.46 1019.61 1018.93 1019.09 1018.69 1017.87 1017.68 1017.46 1016.52 1015.04 1013.79 1012.64 1011.94 1011.30 1010.74 1010.56 1010.14 1009.34 1008.66 1008.19 1007.77 1007.16 1006.77 1006.81 1007.09 1007.46 1007.76 1008.31 1008.87 1009.29 1010.29 1011.01 1011.29 1011.99 1012.71 1013.15
1020.65 1020.52 1020.81 1021.80 1022.59 1022.22 1022.00 1021.68 1021.47 1021.78 1020.73 1020.67 1020.48 1019.91 1019.04 1018.30 1017.68 1016.69 1014.84 1013.73 1012.79 1012.04 1011.30 1010.86 1010.79 1010.28 1009.56 1008.79 1008.21 1007.74 1007.04 1007.00 1007.09 1007.29 1007.59 1007.96 1008.45 1009.04 1009.80 1010.45 1011.13 1011.32 1011.98 1012.46
1022.11 1021.59 1022.04 1023.84 1025.40 1024.71 1024.01 1023.49 1023.18 1022.50 1023.11 1022.13 1021.51 1021.42 1020.85 1020.25 1018.93 1017.51 1015.55 1014.37 1013.73 1013.27 1012.57 1011.43 1011.06 1010.61 1010.16 1009.45 1008.61 1008.10 1007.44 1007.16 1007.04 1007.23 1007.54 1008.02 1008.38 1008.99 1009.47 1009.89 1010.58 1011.14 1011.60 1012.09
1023.20 1023.01 1024.39 1026.38 1026.56 1026.38 1026.01 1024.63 1024.45 1024.81 1024.94 1024.88 1023.96 1022.17 1021.39 1020.40 1019.19 1017.15 1015.87 1014.75 1014.26 1013.91 1013.12 1012.34 1011.31 1010.78 1010.08 1009.91 1009.33 1008.80 1008.26 1007.80 1007.61 1007.57 1007.66 1008.03 1008.32 1008.76 1009.14 1009.49 1010.13 1010.63 1011.16 1011.67
1024.51 1025.14 1026.88 1027.06 1027.54 1027.64 1027.22 1025.74 1025.92 1025.98 1025.25 1024.32 1023.65 1021.90 1019.27 1018.97 1018.10 1017.25 1016.10 1015.56 1015.04 1014.40 1013.68 1012.73 1011.88 1010.97 1010.26 1010.25 1009.77 1009.58 1008.97 1008.40 1008.28 1008.07 1008.21 1008.32 1008.54 1008.96 1009.34 1009.65 1010.11 1010.37 1011.10 1011.51
1026.42 1026.92 1028.02 1029.98 1029.01 1027.98 1027.35 1026.59 1026.11 1026.17 1025.19 1024.32 1023.16 1021.87 1018.09 1018.22 1017.86 1017.53 1016.98 1016.01 1015.40 1014.47 1013.58 1012.71 1011.97 1011.15 1010.69 1010.59 1010.41 1010.34 1009.60 1009.31 1009.21 1008.83 1008.96 1009.11 1009.31 1009.54 1009.68 1009.61 1010.02 1010.52 1011.17 1011.37
1028.35 1028.36 1029.27 1030.26 1029.08 1027.51 1028.18 1028.60 1027.07 1026.84 1025.74 1024.48 1023.53 1022.50 1018.43 1018.02 1017.10 1016.33 1016.23 1015.61 1014.87 1014.31 1013.73 1012.53 1012.04 1011.41 1011.01 1010.85 1010.84 1010.71 1010.34 1009.99 1009.87 1009.66 1009.75 1009.92 1010.09 1010.40 1010.43 1010.57 1010.75 1011.12 1011.45 1011.77
1030.09 1029.94 1030.45 1030.62 1029.81 1030.29 1030.69 1029.20 1028.13 1026.93 1025.63 1023.96 1022.17 1019.29 1016.97 1015.63 1014.62 1014.24 1014.57 1014.33 1013.99 1013.40 1012.88 1012.15 1011.70 1011.42 1011.21 1011.38 1011.33 1011.25 1010.93 1010.63 1010.68 1010.79 1010.76 1010.66 1010.78 1011.21 1011.23 1011.14 1011.39 1011.89 1012.13 1012.40
1032.36 1032.17 1032.09 1031.84 1031.58 1031.20 1030.57 1029.40 1027.97 1026.81 1025.27 1023.70 1021.40 1018.35 1015.46 1013.16 1012.72 1012.97 1013.56 1013.54 1013.05 1012.63 1012.63 1011.83 1011.79 1011.59 1011.37 1011.63 1011.80 1011.94 1011.68 1011.71 1011.61 1011.69 1011.64 1011.81 1011.85 1012.16 1012.25 1012.34 1012.38 1012.67 1012.85 1013.15
1032.98 1032.56 1032.47 1032.04 1031.66 1031.18 1030.33 1029.25 1027.91 1026.70 1025.18 1023.45 1021.28 1018.84 1016.07 1014.28 1013.67 1013.23 1013.18 1013.08 1012.64 1012.63 1012.72 1011.93 1012.31 1012.51 1011.67 1011.62 1012.06 1012.42 1012.62 1012.77 1012.67 1012.52 1012.68 1012.64 1012.69 1012.94 1013.00 1013.32 1013.63 1013.86 1013.97 1014.10
1033.76 1033.24 1032.46 1031.81 1031.83 1031.39 1030.28 1029.07 1027.68 1026.45 1025.26 1023.63 1021.50 1019.82 1018.25 1016.45 1015.46 1014.39 1014.08 1013.65 1013.36 1013.34 1012.86 1012.45 1012.93 1013.26 1012.76 1011.98 1012.66 1012.84 1013.27 1013.54 1013.62 1013.47 1013.51 1013.65 1013.78 1014.20 1014.34 1014.56 1014.57 1014.69 1014.93 1014.89
1035.15 1034.68 1034.43 1033.18 1032.47 1031.71 1030.50 1029.34 1028.06 1026.82 1025.25 1023.82 1022.53 1021.36 1019.94 1018.12 1017.14 1016.40 1015.83 1015.56 1015.28 1015.23 1014.45 1013.55 1013.93 1013.32 1013.40 1012.78 1013.27 1013.72 1014.09 1014.21 1014.57 1014.40 1014.37 1014.65 1014.89 1015.18 1015.49 1015.59 1015.49 1015.46 1015.46 1015.24
1036.10 1035.16 1034.42 1033.51 1032.90 1032.19 1030.99 1029.85 1028.55 1027.37 1026.27 1025.02 1023.73 1022.51 1021.21 1020.01 1019.07 1018.25 1017.41 1016.93 1016.89 1017.15 1016.29 1014.90 1014.24 1013.85 1014.83 1014.20 1014.58 1014.85 1014.88 1014.98 1015.63 1015.55 1015.31 1015.67 1016.07 1016.13 1016.50 1016.85 1016.63 1016.48 1016.45 1016.33
1036.01 1035.28 1034.33 1033.64 1033.05 1032.25 1031.29 1030.34 1029.32 1028.25 1026.92 1025.93 1024.86 1023.63 1022.59 1021.47 1020.47 1019.84 1019.44 1019.07 1018.57 1018.67 1017.68 1016.59 1015.87 1016.32 1015.96 1015.92 1015.82 1016.26 1016.23 1015.40 1016.17 1016.78 1016.63 1016.79 1017.05 1017.35 1017.33 1017.67 1017.89 1017.81 1017.70 1017.46
1035.74 1035.37 1034.98 1034.03 1032.98 1032.08 1031.42 1030.45 1029.39 1028.58 1027.71 1026.50 1025.78 1024.75 1023.61 1022.85 1022.16 1021.62 1021.10 1020.50 1020.08 1019.62 1019.44 1018.33 1018.20 1018.11 1017.61 1017.37 1017.25 1016.84 1016.51 1016.92 1017.44 1017.52 1017.88 1017.90 1018.10 1018.44 1018.63 1018.85 1019.08 1019.08 1018.96 1018.65
1035.84 1035.09 1034.45 1033.79 1033.06 1032.32 1031.55 1030.65 1030.03 1029.18 1028.42 1027.66 1026.68 1025.95 1025.33 1024.45 1023.89 1023.37 1022.59 1022.04 1021.43 1021.13 1020.84 1020.22 1019.74 1019.63 1018.52 1018.67 1018.53 1018.36 1017.53 1017.99 1018.29 1018.61 1018.87 1018.90 1019.10 1019.37 1019.67 1020.00 1020.10 1020.04 1019.96 1020.01
1035.88 1034.77 1034.17 1033.63 1033.22 1032.68 1032.12 1031.63 1030.94 1029.95 1028.98 1028.15 1027.56 1026.84 1026.09 1025.53 1024.84 1024.15 1023.65 1023.47 1023.42 1023.13 1022.55 1021.81 1021.54 1020.84 1020.36 1020.20 1019.23 1019.22 1019.53 1019.63 1019.69 1019.91 1020.02 1020.16 1020.35 1020.34 1020.53 1020.71 1020.87 1020.99 1020.92 1020.58
1036.10 1035.53 1034.95 1034.40 1033.77 1033.14 1032.48 1031.99 1031.39 1030.73 1029.94 1029.07 1028.23 1027.48 1026.87 1026.30 1026.04 1025.79 1025.38 1024.98 1024.63 1024.13 1023.56 1022.96 1022.56 1021.97 1021.47 1021.55 1021.41 1021.24 1021.15 1021.26 1021.21 1021.11 1021.31 1021.42 1021.35 1021.42 1021.51 1021.52 1021.64 1021.77 1021.77 1021.60
1035.65 1035.19 1034.79 1034.36 1033.89 1033.42 1032.93 1032.31 1031.80 1031.25 1030.57 1029.88 1029.07 1028.44 1027.91 1027.38 1026.87 1026.46 1026.07 1025.76 1025.31 1024.79 1024.58 1024.07 1023.60 1023.41 1023.17 1022.88 1022.83 1022.72 1022.73 1022.70 1022.61 1022.47 1022.47 1022.34 1022.28 1022.37 1022.43 1022.49 1022.57 1022.54 1022.51 1022.40
1035.37 1034.97 1034.61 1034.20 1033.84 1033.45 1032.94 1032.45 1032.03 1031.43 1030.89 1030.35 1029.77 1029.20 1028.69 1028.19 1027.72 1027.21 1026.78 1026.41 1026.28 1025.87 1025.37 1024.79 1024.35 1024.15 1024.25 1024.12 1024.01 1024.01 1023.93 1023.80 1023.60 1023.50 1023.26 1023.25 1023.21 1023.19 1023.25 1023.23 1023.26 1023.29 1023.15 1023.12
1035.19 1034.81 1034.45 1034.06 1033.69 1033.38 1033.07 1032.66 1032.15 1031.69 1031.12 1030.55 1030.11 1029.70 1029.24 1028.72 1028.35 1028.02 1027.63 1027.30 1026.89 1026.29 1025.83 1025.48 1025.28 1025.08 1024.91 1024.92 1024.88 1024.90 1024.81 1024.70 1024.54 1024.40 1024.28 1024.23 1024.13 1024.16 1024.26 1024.28 1024.19 1024.06 1023.94 1023.89
1034.70 1034.47 1034.21 1033.96 1033.71 1033.37 1032.93 1032.56 1032.24 1031.86 1031.35 1030.87 1030.43 1029.95 1029.58 1029.21 1028.89 1028.50 1028.33 1028.25 1027.51 1026.88 1026.66 1026.31 1025.89 1025.49 1025.61 1025.67 1025.73 1025.73 1025.63 1025.49 1025.29 1025.01 1024.83 1024.78 1024.68 1024.84 1024.98 1024.99 1024.91 1024.69 1024.63 1024.44
1034.34 1034.06 1033.67 1033.43 1033.26 1033.06 1032.76 1032.44 1032.04 1031.72 1031.40 1031.08 1030.73 1030.43 1030.19 1029.79 1029.38 1028.99 1028.68 1028.33 1027.76 1027.17 1027.07 1026.89 1026.09 1025.72 1025.98 1026.27 1026.32 1026.20 1025.98 1025.81 1025.59 1025.33 1025.13 1025.03 1025.03 1025.03 1025.11 1025.17 1024.99 1024.95 1024.80 1024.49
1033.75 1033.50 1033.30 1033.05 1032.87 1032.67 1032.32 1031.85 1031.72 1031.53 1031.22 1030.83 1030.48 1030.22 1030.07 1029.70 1029.32 1029.02 1028.89 1028.56 1028.03 1027.41 1027.23 1027.00 1026.37 1026.07 1026.44 1026.66 1026.57 1026.43 1026.22 1026.01 1025.88 1025.72 1025.58 1025.35 1025.36 1025.27 1025.24 1025.13 1025.04 1024.86 1024.65 1024.43
1033.09 1032.92 1032.79 1032.66 1032.43 1032.09 1031.75 1031.43 1031.17 1030.85 1030.68 1030.53 1030.31 1029.99 1029.71 1029.49 1029.37 1028.96 1028.74 1028.49 1028.15 1027.80 1027.64 1027.48 1026.95 1026.71 1026.96 1026.98 1026.85 1026.71 1026.54 1026.40 1026.10 1025.83 1025.80 1025.63 1025.51 1025.45 1025.31 1025.14 1024.97 1024.78 1024.52 1024.35
1032.61 1032.34 1032.07 1031.82 1031.60 1031.33 1031.12 1031.00 1030.87 1030.53 1030.22 1029.92 1029.72 1029.56 1029.39 1029.15 1029.01 1028.77 1028.64 1028.43 1028.30 1027.95 1027.85 1027.66 1027.43 1027.15 1027.17 1027.16 1027.01 1026.82 1026.62 1026.41 1026.14 1025.91 1025.70 1025.72 1025.63 1025.50 1025.27 1024.96 1024.67 1024.42 1024.19 1023.95
1031.85 1031.53 1031.35 1031.03 1030.75 1030.61 1030.51 1030.36 1030.01 1029.95 1029.75 1029.48 1029.23 1028.98 1028.73 1028.65 1028.59 1028.34 1028.27 1028.28 1028.20 1028.07 1027.92 1027.70 1027.49 1027.23 1027.08 1027.05 1027.07 1026.95 1026.77 1026.51 1026.03 1025.58 1025.58 1025.55 1025.32 1025.09 1024.83 1024.53 1024.26 1023.96 1023.69 1023.37
Thickness
5296 5305 5312 5311 5301 5314 5324 5332 5332 5348 5366 5366 5366 5381 5385 5392 5406 5424 5442 5463 5476 5485 5495 5501 5511 5523 5534 5539 5545 5555 5566 5570 5571 5571 5571 5569 5572 5574 5570 5569 5572 5572 5570 5572
5262 5285 5288 5277 5266 5283 5294 5311 5323 5314 5342 5329 5336 5347 5361 5372 5383 5399 5421 5440 5458 5469 5481 5493 5498 5506 5519 5528 5536 5543 5554 5559 5563 5565 5566 5566 5566 5565 5563 5564 5564 5567 5566 5569
5229 5268 5269 5238 5228 5251 5265 5270 5279 5295 5274 5297 5311 5323 5333 5345 5365 5381 5409 5428 5437 5443 5456 5476 5488 5495 5506 5517 5527 5534 5544 5551 5557 5559 5560 5560 5560 5558 5558 5559 5559 5556 5559 5558
5226 5259 5208 5206 5215 5223 5231 5255 5261 5251 5256 5262 5275 5301 5316 5329 5347 5372 5393 5414 5422 5430 5440 5455 5473 5487 5497 5505 5516 5525 5532 5537 5543 5549 5553 5553 5554 5554 5554 5556 5553 5552 5551 5551
5248 5228 5202 5207 5201 5198 5203 5224 5231 5225 5237 5252 5260 5281 5325 5335 5346 5359 5379 5389 5404 5417 5428 5440 5458 5474 5488 5493 5504 5513 5522 5527 5530 5536 5540 5543 5545 5544 5543 5543 5543 5546 5543 5543
5198 5195 5209 5172 5186 5199 5204 5211 5213 5212 5225 5236 5251 5259 5320 5325 5330 5337 5351 5370 5384 5400 5416 5430 5445 5461 5474 5481 5489 5497 5508 5514 5517 5521 5523 5526 5528 5530 5531 5536 5536 5535 5532 5534
5193 5188 5187 5171 5182 5199 5187 5192 5201 5201 5211 5220 5227 5239 5296 5302 5316 5332 5342 5358 5377 5391 5405 5422 5432 5446 5458 5466 5473 5481 5492 5500 5505 5509 5510 5511 5514 5515 5518 5519 5520 5522 5523 5523
5180 5175 5156 5168 5174 5164 5165 5180 5190 5197 5205 5218 5233 5259 5280 5297 5317 5331 5337 5353 5374 5390 5403 5413 5426 5432 5443 5450 5458 5465 5475 5483 5488 5491 5495 5500 5502 5501 5504 5509 5511 5509 5510 5510
5155 5162 5160 5156 5157 5160 5165 5174 5186 5191 5202 5214 5233 5259 5286 5306 5314 5319 5324 5347 5370 5387 5392 5406 5414 5425 5432 5436 5442 5447 5457 5463 5470 5475 5479 5481 5483 5485 5487 5490 5493 5494 5495 5495
5149 5154 5150 5152 5155 5159 5164 5171 5181 5189 5198 5210 5225 5244 5270 5283 5288 5296 5311 5337 5358 5371 5378 5394 5399 5406 5421 5427 5430 5433 5439 5445 5453 5459 5461 5466 5469 5470 5472 5472 5472 5473 5476 5477
5148 5153 5152 5162 5156 5156 5163 5171 5179 5189 5195 5204 5218 5230 5242 5255 5270 5285 5293 5308 5333 5350 5361 5377 5383 5390 5403 5414 5417 5422 5426 5429 5434 5441 5445 5447 5450 5450 5451 5452 5455 5456 5456 5460
5137 5144 5139 5148 5152 5154 5161 5167 5176 5185 5195 5202 5207 5215 5224 5239 5251 5263 5271 5276 5291 5312 5332 5351 5360 5375 5388 5396 5400 5405 5409 5415 5417 5424 5428 5429 5430 5430 5430 5433 5436 5439 5441 5445
5137 5139 5141 5149 5151 5152 5157 5164 5172 5180 5187 5193 5198 5207 5215 5224 5235 5249 5259 5264 5273 5284 5305 5334 5350 5360 5362 5375 5380 5385 5392 5397 5397 5403 5410 5410 5410 5412 5411 5411 5415 5419 5421 5424
5138 5142 5148 5149 5153 5155 5158 5161 5166 5171 5182 5187 5194 5204 5212 5221 5231 5236 5242 5251 5263 5274 5292 5311 5327 5334 5345 5354 5362 5365 5372 5386 5383 5382 5388 5390 5391 5390 5394 5393 5393 5395 5399 5404
5149 5147 5145 5152 5157 5161 5164 5168 5173 5175 5178 5185 5188 5194 5204 5211 5219 5226 5234 5243 5253 5270 5278 5295 5307 5315 5327 5336 5346 5355 5362 5364 5364 5367 5368 5371 5370 5369 5371 5371 5370 5372 5376 5380
5149 5153 5157 5158 5162 5164 5168 5171 5173 5177 5181 5183 5188 5191 5194 5202 5206 5212 5224 5234 5245 5257 5266 5279 5293 5300 5317 5323 5328 5334 5347 5348 5349 5349 5350 5353 5354 5353 5352 5350 5350 5352 5355 5356
5150 5155 5158 5160 5163 5165 5167 5169 5171 5176 5181 5185 5187 5191 5196 5201 5208 5215 5222 5229 5235 5242 5254 5266 5274 5285 5297 5303 5316 5320 5321 5325 5328 5329 5331 5332 5333 5335 5335 5335 5334 5334 5337 5341
5150 5153 5155 5157 5159 5162 5165 5167 5170 5172 5176 5182 5188 5192 5197 5201 5204 5207 5212 5221 5229 5236 5245 5254 5263 5273 5282 5285 5290 5296 5300 5302 5306 5309 5311 5312 5315 5317 5318 5319 5319 5318 5320 5324
5150 5150 5152 5155 5156 5157 5159 5164 5166 5169 5173 5177 5183 5188 5193 5197 5202 5207 5212 5215 5221 5230 5235 5243 5251 5256 5262 5268 5271 5275 5278 5281 5285 5289 5291 5295 5298 5300 5301 5303 5303 5304 5306 5308
5144 5146 5147 5148 5151 5154 5156 5159 5161 5165 5168 5173 5177 5181 5186 5191 5195 5200 5205 5210 5212 5218 5225 5233 5239 5244 5246 5250 5254 5257 5260 5264 5268 5272 5277 5279 5282 5283 5284 5288 5288 5288 5290 5292
5138 5138 5139 5140 5142 5143 5147 5150 5153 5156 5162 5167 5170 5173 5177 5182 5186 5189 5193 5196 5202 5209 5215 5220 5224 5228 5233 5236 5239 5241 5245 5248 5252 5255 5259 5261 5264 5266 5267 5268 5270 5272 5274 5275
5136 5133 5132 5131 5131 5131 5135 5136 5139 5145 5149 5154 5159 5163 5166 5170 5174 5177 5180 5181 5189 5196 5198 5203 5209 5215 5217 5219 5222 5225 5228 5232 5236 5240 5244 5247 5250 5250 5250 5251 5252 5256 5257 5259
5131 5130 5130 5128 5126 5123 5122 5124 5127 5130 5133 5138 5142 5145 5148 5152 5157 5162 5166 5170 5176 5182 5183 5188 5198 5204 5203 5203 5205 5209 5214 5218 5223 5227 5231 5233 5235 5236 5237 5238 5241 5242 5243 5247
5130 5128 5125 5123 5119 5117 5116 5118 5116 5117 5119 5122 5127 5130 5133 5138 5143 5147 5149 5154 5161 5168 5170 5174 5182 5188 5187 5188 5191 5195 5199 5203 5207 5211 5215 5219 5220 5222 5224 5226 5228 5230 5232 5235
5127 5123 5119 5115 5113 5113 5111 5111 5109 5109 5108 5108 5110 5113 5116 5121 5124 5129 5132 5137 5143 5148 5152 5156 5163 5167 5167 5170 5175 5179 5183 5186 5191 5196 5198 5202 5205 5207 5210 5212 5215 5217 5220 5221
5119 5118 5116 5114 5112 5110 5106 5102 5099 5098 5099 5099 5099 5100 5101 5104 5106 5109 5111 5117 5121 5127 5130 5134 5140 5145 5148 5151 5156 5161 5165 5169 5173 5178 5183 5185 5188 5190 5193 5197 5200 5203 5205 5207
5115 5115 5111 5109 5106 5103 5098 5095 5096 5090 5089 5088 5088 5088 5090 5091 5091 5095 5097 5098 5100 5104 5108 5113 5118 5124 5129 5133 5137 5142 5146 5151 5156 5161 5165 5168 5172 5175 5178 5181 5184 5187 5189 5191